Tracking 29892 objects as of 21-Nov-2024
HD Live streaming from Space Station
objects crossing your sky now

THOR BURNER 2 R/B

Track THOR BURNER 2 R/B now!
10-day predictions


NORAD ID: 2877
Int'l Code: 1967-065C
Perigee: 3,809.5 km
Apogee: 3,948.3 km
Inclination: 90.0 °
Period: 172.1 minutes
Semi major axis: 10249 km
RCS: 0.832 m2 (medium)
Launch date: June 29, 1967
Source: United States (US)
Launch site: AIR FORCE WESTERN TEST RANGE (AFWTR)

Note: This is a ROCKET BODY
Your satellite tracking list
Your tracking list is empty




NASA's NSSDC Master Catalog

Two Line Element Set (TLE):
1 02877U 67065C   24325.40188053 -.00000013  00000-0 -92249-2 0  9997
2 02877  90.0129 313.7297 0067728 280.6769  78.6446  8.36608780752990
Source of the keplerian elements: AFSPC